ZIYUAN 3-2 (ZY 3-2) (41556 NORAD) Tracking and Keplerian Element Data

This shows tracking and keplerian element data for the satellite.

Feedback or suggestion? Click here.




ElementValue
Catalog41556
NameZIYUAN 3-2 (ZY 3-2)
Epoch Orbit13679
Epoch Day319.84913631
Epoch Year2018
RAAN35.5591
Inclination97.419
Eccentricity8.95E-05
Argument of Perigee103.0132
Mean Anonmoly7.5549
Mean Motion15.21343608
Decay Rate7.2E-06
L11 41556U 16033A 18319.84913631 .00000720 00000-0 35198-4 0 9990
L22 41556 97.4190 35.5591 0000895 103.0132 7.5549 15.21343608136792

Live tracking and technical data element details for ZIYUAN 3-2 (ZY 3-2) (NORAD 41556). ZIYUAN 3-2 (ZY 3-2) can be tracked NOW for your location showing map with azimuth and elevation plus other details from your city location.

Track the satellite on the map from your city or location and see movement details for azimuth, elevation, latitude, longitude, range, height, and movement on the map or in text.







IsCatalogInMostPopularTable: catalog: 41556, numindb: 138
Update: records affected: 1



GetName: 41556 ZIYUAN 3-2 (ZY 3-2)

Hit Count: updated at: Fri, 16 Nov 2018 10:28:44 GMT